Regional Weather Roundup
Issued by NWS

Home | Current Version | Previous Version | Graphics & Text | Print | Product List | Glossary On
Versions: 1 2 3 4 5 6 7 8 9 10 11 12 13 14 15 16 17 18 19 20 21 22 23 24 25 26 27 28 29 30 31 32 33 34 35 36 37 38 39 40 41 42 43 44 45 46 47 48 49 50
000
ASUS43 KDMX 080608
RWRIA

WEATHER ROUNDUP FOR IOWA
NATIONAL WEATHER SERVICE DES MOINES IA
1200 AM CST MON FEB 08 2016

NOTE: "FAIR" INDICATES FEW OR NO CLOUDS BELOW 12,000 FEET WITH NO
SIGNIFICANT WEATHER AND/OR OBSTRUCTIONS TO VISIBILITY.

* - THESE STATIONS ARE NOT NWS STATIONS...THUS NOT UNDER NWS
QUALITY CONTROL.  THEY ALSO DO NOT REPORT WEATHER SUCH
AS PRECIPITATION OR FOG.

IAZ001>003-012>014-020>022-031>034-043>046-080700-
   NORTHWEST IOWA

CITY           SKY/WX    TMP DP  RH WIND       PRES   REMARKS
CARROLL *      CLOUDY    25  16  68 NW31G43   29.90S WCI   8
CHEROKEE *     PTCLDY    23  19  83 NW20G25   29.94R WCI   8
DENISON *      LGT SNOW  27  23  86 N26       29.92S WCI  11
LE MARS *      MIX PCPN  25  25 100 NW31G40   29.98S WCI   8
ORANGE CITY *  LGT SNOW  23  21  93 N18G32    29.94R VSB 1   WCI   9
SHELDON *      LGT SNOW  21  19  93 NW28G36   29.91S WCI   3
SIOUX CITY     CLOUDY    30  21  69 NW24G35   29.97S WCI  16
6HR MIN TEMP:  29; 6HR MAX TEMP:  35; 6HR PCP: TRACE;

SPENCER        LGT SNOW  20  14  77 NW20      29.90R WCI   4
6HR MIN TEMP:  20; 6HR MAX TEMP:  31; 6HR PCP: TRACE;

STORM LAKE *   CLOUDY    21  14  73 NW30G41   29.90S WCI   3
$$

IAZ055>058-069>071-079>083-090>094-080700-
   SOUTHWEST IOWA

CITY           SKY/WX    TMP DP  RH WIND       PRES   REMARKS
ATLANTIC *     LGT SNOW  25  23  93 N22G32    29.95S VSB 1   WCI  10
AUDUBON *      CLOUDY    27  19  74 NW24G31   29.92S WCI  12
CLARINDA *     FLURRIES  32  27  80 NW21G37   29.98F WCI  20
COUNCIL BLFS * LGT SNOW  28  23  80 N20G39    29.98R WCI  15
CRESTON *      FLURRIES  27  19  74 NW26G36   29.91S WCI  11
HARLAN  *      LGT SNOW  27  23  86 NW20G28   29.98S WCI  13
LAMONI         CLOUDY    30  18  60 NW31G46   29.89R WCI  15
6HR MIN TEMP:  30; 6HR MAX TEMP:  37; 6HR PCP: TRACE;

RED OAK *      LGT SNOW  30  28  93 NW20G30   29.97S WCI  18
SHENANDOAH *   LGT SNOW  30  30 100 NW15G25   30.01R WCI  19
$$

IAZ047>049-059>061-072>074-084-080700-
   CENTRAL IOWA

CITY           SKY/WX    TMP DP  RH WIND       PRES   REMARKS
AMES           CLOUDY    27  21  78 NW24G30   29.85R WCI  12
6HR MIN TEMP:  27; 6HR MAX TEMP:  35; 6HR PCP: TRACE;

ANKENY *       FLURRIES  28  21  74 NW23G35   29.85S WCI  14
BOONE *        LGT SNOW  25  19  80 NW21G35   29.84R WCI  10
CHARITON *     LGT RAIN  30  25  80 NW21      29.85R WCI  17
DES MOINES     FLURRIES  29  21  72 NW20G28   29.86S WCI  16
6HR MIN TEMP:  29; 6HR MAX TEMP:  36; 6HR PCP: TRACE;

GRINNELL*      CLOUDY    28  23  80 NW24G31   29.80R WCI  14
KNOXVILLE *    MIX PCPN  30  25  80 NW20      29.82R WCI  18
MARSHALLTOWN   CLOUDY    27  21  78 NW25G38   29.80R WCI  12
6HR MIN TEMP:  27; 6HR MAX TEMP:  35; 6HR PCP: TRACE;

NEWTON *       FLURRIES  28  25  86 NW23G36   29.82R WCI  14
PELLA *        CLOUDY    31  27  84 NW15G30   29.84R WCI  20
$$

IAZ004>006-015-016-023>025-035-036-080700-
   NORTH CENTRAL IOWA

CITY           SKY/WX    TMP DP  RH WIND       PRES   REMARKS
ALGONA *       CLOUDY    19  18  93 NW25G33   29.84S FOG     WCI   2
CLARION *      LGT SNOW  21  16  79 NW33G41   29.83R WCI   2
ESTHERVILLE    LGT SNOW  18  16  92 NW24      29.85F FOG     WCI   0
6HR MIN TEMP:  18; 6HR MAX TEMP:  29; 6HR PCP: TRACE;

FORT DODGE *   CLOUDY    23  18  80 NW17G25   29.86S WCI   9
MASON CITY     LGT SNOW  19  16  88 NW30G40   29.79F VSB 3/4 WCI   0
6HR MIN TEMP:  19; 6HR MAX TEMP:  34; 6HR PCP:  0.01;

FOREST CITY *  LGT SNOW  19  14  79 NW30G39   29.80S WCI   0
WEBSTER CITY * LGT SNOW  23  21  93 NW26G33   29.83R WCI   6
IOWA FALLS *   CLOUDY    23  19  86 NW22G30   29.82S FOG     WCI   8
$$

IAZ007>011-017>019-026>030-037>042-050>054-066-080700-
   NORTHEAST IOWA

CITY           SKY/WX    TMP DP  RH WIND       PRES   REMARKS
CEDAR RAPIDS   CLOUDY    31  26  82 NW18G35   29.74R WCI  19
6HR MIN TEMP:  31; 6HR MAX TEMP:  35; 6HR PCP: TRACE;

CHARLES CITY * LGT SNOW  21  21 100 NW23G31   29.76S WCI   5
CLINTON *      CLOUDY    33  31  92 W13       29.70F WCI  24
DECORAH *      CLOUDY    25  19  80 NW12G21   29.68S WCI  14
DUBUQUE        CLOUDY    31  27  85 NW17G31   29.67S WCI  19
6HR MIN TEMP:  31; 6HR MAX TEMP:  34;

MONTICELLO *   LGT RAIN  30  25  80 NW23G31   29.71S WCI  17
OELWEIN *      MIX PCPN  27  21  80 NW29G37   29.73R WCI  11
WATERLOO       CLOUDY    25  17  72 NW28G37   29.76R WCI   9
6HR MIN TEMP:  25; 6HR MAX TEMP:  36; 6HR PCP: TRACE;

$$

IAZ064-065-067-068-078-080700-
   EAST CENTRAL IOWA

CITY           SKY/WX    TMP DP  RH WIND       PRES   REMARKS
DAVENPORT      CLOUDY    33  31  92 W14       29.72F WCI  23
6HR MIN TEMP:  32; 6HR MAX TEMP:  37;

IOWA CITY      CLOUDY    33  29  85 NW16G23   29.77S WCI  23
6HR MIN TEMP:  33; 6HR MAX TEMP:  37; 6HR PCP: TRACE;

MT. PLEASANT * DRIZZLE   36  33  88 W12       29.78S WCI  28
MUSCATINE *    CLOUDY    34  32  93 W15G22    29.76S WCI  24
QUAD CITIES    CLOUDY    34  30  85 W8        29.72F WCI  27
6HR MIN TEMP:  33; 6HR MAX TEMP:  39;

$$

IAZ062-063-075>077-085>089-095>099-080700-
   SOUTHEAST IOWA

CITY           SKY/WX    TMP DP  RH WIND       PRES   REMARKS
BURLINGTON     CLOUDY    34  30  85 W12       29.76F WCI  25
6HR MIN TEMP:  34; 6HR MAX TEMP:  40;

FAIRFIELD *    CLOUDY    34  30  86 W13G20    29.78F FOG     WCI  25
FORT MADISON * CLOUDY    34  30  86 W9        29.79F WCI  26
KEOKUK *       CLOUDY    36  30  80 W8        29.79F WCI  29
OSKALOOSA *    LGT RAIN  32  30  94 NW20G26   29.80S WCI  20
CENTERVILLE *    N/A    N/A N/A N/A MISG        N/A
OTTUMWA        CLOUDY    32  29  88 NW18G26   29.80S WCI  20
6HR MIN TEMP:  32; 6HR MAX TEMP:  37; 6HR PCP: TRACE;

WASHINGTON *   MIX PCPN  34  32  93 NW13G18   29.78S WCI  25
$$

ABBREVIATIONS USED IN REMARKS
   TC - TEMPERATURES IN CELSIUS
  WCI - WIND CHILL INDEX
   HX - HEAT INDEX
  VSB - VISIBILITY
$$




USA.gov is the U.S. government's official web portal to all federal, state and local government web resources and services.